GW4712 Weather Reports


time (UTC)temp
C
wind
direction
speed
KPH
gust
KPH
rain 1hr
cm
rain 24hr
cm
rain mn
cm
humidity
%
barometer
mb
20260904212311 23 139 0.0 1.6 0.00 1.91 1.91 92 1016.4
20260904211807 22 168 0.0 0.0 0.00 1.91 1.91 93 1016.5
20260904211301 23 226 0.0 0.0 0.00 1.91 1.91 94 1016.5
20260904210756 23 85 0.0 0.0 0.00 1.91 1.91 95 1016.7
20260904210250 23 317 0.0 0.0 0.00 1.91 1.91 96 1016.7
20260904205746 22 233 0.0 0.0 0.00 1.91 1.91 96 1016.4
20260904205242 22 155 0.0 0.0 0.00 1.91 1.91 96 1016.4
20260904204739 22 187 0.0 0.0 0.00 1.91 1.91 97 1016.6
20260904204234 22 198 0.0 0.0 0.00 1.91 1.91 97 1016.2
20260904203730 22 156 0.0 0.0 0.00 1.91 1.91 98 1016.2
20260904203226 21 71 0.0 0.0 0.00 1.91 1.91 99 1016.5
20260904202722 21 36 0.0 0.0 0.00 1.91 1.91 99 1016.4
20260904202218 21 177 0.0 0.0 0.00 1.91 1.91 99 1016.7
20260904201713 21 177 0.0 0.0 0.00 1.91 1.91 99 1017.1
20260904201208 21 60 0.0 0.0 0.00 1.91 1.91 99 1017.1
20260904200702 21 61 0.0 0.0 0.00 1.91 1.91 99 1016.6
20260904200152 21 61 0.0 0.0 0.00 1.91 1.91 99 1016.8
20260904195650 21 61 0.0 0.0 0.00 1.91 1.91 99 1016.7
20260904195149 21 61 0.0 0.0 0.00 1.91 1.91 99 1016.6
20260904194643 21 61 0.0 0.0 0.00 1.91 1.91 99 1016.6
20260904194138 21 322 0.0 0.0 0.00 1.91 1.91 99 1016.6
20260904193632 21 294 0.0 0.0 0.00 1.91 1.91 99 1016.8
20260904193129 21 294 0.0 0.0 0.00 1.91 1.91 99 1017.0
20260904192629 21 294 0.0 0.0 0.00 1.91 1.91 99 1017.3
20260904192124 21 294 0.0 0.0 0.00 1.91 1.91 99 1017.4
20260904191621 21 295 0.0 0.0 0.00 1.91 1.91 99 1017.6
20260904191118 21 236 0.0 0.0 0.00 1.91 1.91 99 1017.7
20260904190613 21 261 0.0 0.0 0.00 1.91 1.91 99 1018.1
20260904190104 21 84 0.0 0.0 0.30 1.91 1.91 98 1018.0
20260904185600 21 237 0.0 1.6 5.94 1.91 1.91 97 1017.9
20260904185054 21 251 0.0 1.6 11.15 1.85 1.85 96 1018.8
20260904184548 22 310 0.0 9.7 5.51 0.91 0.91 95 1019.3
20260904184044 29 35 12.9 40.2 0.00 0.00 0.00 79 1017.2
20260904183544 30 271 0.0 0.0 0.00 0.00 0.00 80 1015.5
20260904183039 30 271 0.0 0.0 0.00 0.00 0.00 78 1014.9
20260904182534 31 271 0.0 0.0 0.00 0.00 0.00 74 1015.3
20260904182029 31 302 0.0 0.0 0.00 0.00 0.00 72 1014.9
20260904181525 31 307 0.0 0.0 0.00 0.00 0.00 69 1014.8
20260904181025 32 267 0.0 0.0 0.00 0.00 0.00 67 1014.8
20260904180519 32 249 0.0 0.0 0.00 0.00 0.00 68 1015.2
20260904180014 32 251 0.0 0.0 0.00 0.00 0.00 67 1015.3
20260904175508 32 249 0.0 0.0 0.00 0.00 0.00 69 1015.5
20260904175001 32 305 0.0 0.0 0.00 0.00 0.00 70 1015.5
20260904174457 31 250 0.0 0.0 0.00 0.00 0.00 69 1015.8
20260904173954 32 300 0.0 0.0 0.00 0.00 0.00 69 1016.0
20260904173453 32 246 0.0 0.0 0.00 0.00 0.00 68 1016.1
20260904172948 32 239 0.0 0.0 0.00 0.00 0.00 67 1016.1
20260904172443 32 246 0.0 1.6 0.00 0.00 0.00 67 1016.4
20260904171938 32 238 0.0 0.0 0.00 0.00 0.00 71 1016.4
20260904171434 32 307 0.0 0.0 0.00 0.00 0.00 70 1016.7
20260904170930 32 296 0.0 0.0 0.00 0.00 0.00 69 1016.7
20260904170424 32 237 0.0 0.0 0.00 0.00 0.00 69 1016.8
20260904165920 32 218 0.0 1.6 0.00 0.00 0.00 69 1016.7
20260904165419 32 265 0.0 0.0 0.00 0.00 0.00 70 1016.8
20260904164913 32 175 0.0 0.0 0.00 0.00 0.00 70 1016.7
20260904164413 32 340 0.0 0.0 0.00 0.00 0.00 69 1016.7
20260904163909 31 7 0.0 0.0 0.00 0.00 0.00 69 1017.1
20260904163409 31 250 0.0 0.0 0.00 0.00 0.00 69 1016.8
20260904162908 31 278 0.0 0.0 0.00 0.00 0.00 71 1017.0
20260904162404 31 311 0.0 0.0 0.00 0.00 0.00 72 1017.0
20260904161859 31 275 0.0 0.0 0.00 0.00 0.00 74 1016.9
20260904161354 31 286 0.0 0.0 0.00 0.00 0.00 70 1017.0
20260904160850 31 284 0.0 0.0 0.00 0.00 0.00 74 1017.2
20260904160344 31 263 0.0 0.0 0.00 0.00 0.00 73 1017.2
20260904155839 31 282 0.0 0.0 0.00 0.00 0.00 73 1017.3
20260904155334 31 277 0.0 0.0 0.00 0.00 0.00 74 1017.1
20260904154832 30 7 0.0 0.0 0.00 0.00 0.00 76 1017.1
20260904154327 30 260 0.0 0.0 0.00 0.00 0.00 73 1017.3
20260904153823 30 1 0.0 0.0 0.00 0.00 0.00 76 1017.4
20260904153318 30 256 0.0 0.0 0.00 0.00 0.00 77 1017.2
20260904152815 30 22 0.0 0.0 0.00 0.00 0.00 78 1017.2
20260904152309 30 301 0.0 0.0 0.00 0.00 0.00 78 1017.3
20260904151804 30 256 0.0 0.0 0.00 0.00 0.00 77 1017.4
20260904151303 29 253 0.0 0.0 0.00 0.00 0.00 77 1017.2
20260904150800 29 275 0.0 0.0 0.00 0.00 0.00 78 1017.2
20260904150254 29 154 0.0 0.0 0.00 0.00 0.00 80 1017.2
20260904145752 29 346 0.0 0.0 0.00 0.00 0.00 79 1017.2
20260904145248 28 281 0.0 0.0 0.00 0.00 0.00 81 1017.3
20260904144743 28 277 0.0 0.0 0.00 0.00 0.00 81 1017.0
20260904144239 28 219 0.0 0.0 0.00 0.00 0.00 83 1017.4
20260904143734 28 152 0.0 0.0 0.00 0.00 0.00 83 1017.1
20260904143232 28 156 0.0 0.0 0.00 0.00 0.00 85 1017.3
20260904142727 27 158 0.0 0.0 0.00 0.00 0.00 84 1017.3
20260904142223 27 162 0.0 0.0 0.00 0.00 0.00 84 1017.4
20260904141723 27 219 0.0 0.0 0.00 0.00 0.00 84 1017.1
20260904141219 27 123 0.0 0.0 0.00 0.00 0.00 86 1017.3
20260904140714 27 225 0.0 0.0 0.00 0.00 0.00 86 1017.4
20260904140209 26 139 0.0 0.0 0.00 0.00 0.00 88 1017.5
20260904135708 26 138 0.0 0.0 0.00 0.00 0.00 88 1017.4
20260904135203 26 138 0.0 0.0 0.00 0.00 0.00 89 1017.5
20260904134659 26 51 0.0 0.0 0.00 0.00 0.00 90 1017.7
20260904134158 25 50 0.0 0.0 0.00 0.00 0.00 91 1017.6
20260904133653 25 50 0.0 0.0 0.00 0.00 0.00 93 1017.7
20260904133150 25 50 0.0 0.0 0.00 0.00 0.00 93 1017.8
20260904132649 24 50 0.0 0.0 0.00 0.00 0.00 94 1017.7
20260904132144 24 50 0.0 0.0 0.00 0.00 0.00 93 1017.8
20260904131643 24 50 0.0 0.0 0.00 0.00 0.00 93 1017.6
20260904131139 23 49 0.0 0.0 0.00 0.00 0.00 94 1017.9
20260904130638 23 51 0.0 0.0 0.00 0.00 0.00 95 1017.9
20260904130133 23 32 0.0 0.0 0.00 0.00 0.00 95 1018.0
20260904125629 23 204 0.0 0.0 0.00 0.00 0.00 96 1017.8
20260904125124 23 205 0.0 0.0 0.00 0.00 0.00 96 1017.8
20260904124619 22 205 0.0 0.0 0.00 0.00 0.00 97 1017.8
20260904124115 22 205 0.0 0.0 0.00 0.00 0.00 97 1017.7
20260904123615 22 206 0.0 0.0 0.00 0.00 0.00 98 1017.9
20260904123110 22 206 0.0 0.0 0.00 0.00 0.00 99 1017.7
20260904122606 21 206 0.0 0.0 0.00 0.00 0.00 99 1017.9
20260904122100 21 206 0.0 0.0 0.00 0.00 0.00 99 1017.8
20260904121555 21 206 0.0 0.0 0.00 0.00 0.00 99 1018.0
20260904121051 21 206 0.0 0.0 0.00 0.00 0.00 99 1017.9
20260904120547 21 206 0.0 0.0 0.00 0.00 0.00 99 1017.9
20260904120043 21 206 0.0 0.0 0.00 0.00 0.00 99 1017.9
20260904115538 20 206 0.0 0.0 0.00 0.00 0.00 99 1018.0
20260904115032 20 206 0.0 0.0 0.00 0.00 0.00 99 1018.1
20260904114527 20 206 0.0 0.0 0.00 0.00 0.00 99 1018.0
20260904114022 20 206 0.0 0.0 0.00 0.00 0.00 99 1017.8
20260904113521 20 206 0.0 0.0 0.00 0.00 0.00 99 1018.0
20260904113016 20 206 0.0 0.0 0.00 0.00 0.00 99 1017.7
20260904112511 20 206 0.0 0.0 0.00 0.00 0.00 99 1017.9
20260904112007 20 102 0.0 0.0 0.00 0.00 0.00 99 1018.0
20260904111503 20 103 0.0 0.0 0.00 0.00 0.00 99 1017.8
20260904110958 20 102 0.0 0.0 0.00 0.00 0.00 99 1017.8
20260904110457 20 102 0.0 0.0 0.00 0.00 0.00 99 1017.8
20260904105952 20 47 0.0 0.0 0.00 0.00 0.00 99 1017.7
20260904105447 20 140 0.0 0.0 0.00 0.00 0.00 99 1017.5
20260904104942 20 140 0.0 0.0 0.00 0.00 0.00 99 1017.1
20260904104442 20 140 0.0 0.0 0.00 0.00 0.00 99 1017.3
20260904103933 20 140 0.0 0.0 0.00 0.00 0.00 99 1017.1
20260904103428 20 140 0.0 0.0 0.00 0.00 0.00 99 1017.3
20260904102924 20 140 0.0 0.0 0.00 0.00 0.00 99 1017.2
20260904102420 20 139 0.0 0.0 0.00 0.00 0.00 99 1017.2
20260904101915 20 139 0.0 0.0 0.00 0.00 0.00 99 1017.1
20260904101412 20 140 0.0 0.0 0.00 0.00 0.00 99 1017.2
20260904100907 20 140 0.0 0.0 0.00 0.00 0.00 99 1016.9
20260904100402 20 140 0.0 0.0 0.00 0.00 0.00 99 1016.9
20260904095857 20 140 0.0 0.0 0.00 0.00 0.00 99 1016.8
20260904095352 20 140 0.0 0.0 0.00 0.00 0.00 99 1016.7
20260904094847 20 140 0.0 0.0 0.00 0.00 0.00 99 1016.5
20260904094342 20 140 0.0 0.0 0.00 0.00 0.00 99 1016.8
20260904093838 20 140 0.0 0.0 0.00 0.00 0.00 99 1016.8
20260904093338 20 140 0.0 0.0 0.00 0.00 0.00 99 1016.8
20260904092833 20 140 0.0 0.0 0.00 0.00 0.00 99 1016.6
20260904092330 20 140 0.0 0.0 0.00 0.00 0.00 99 1016.4
20260904091826 20 140 0.0 0.0 0.00 0.00 0.00 99 1016.5
20260904091321 20 140 0.0 0.0 0.00 0.00 0.00 99 1016.6
20260904090816 20 140 0.0 0.0 0.00 0.00 0.00 99 1016.5
20260904090312 20 140 0.0 0.0 0.00 0.00 0.00 99 1016.6
20260904085807 20 140 0.0 0.0 0.00 0.00 0.00 99 1016.8
20260904085305 20 140 0.0 0.0 0.00 0.00 0.00 99 1016.7
20260904084756 20 140 0.0 0.0 0.00 0.00 0.00 99 1016.7
20260904084252 20 140 0.0 0.0 0.00 0.00 0.00 99 1016.8
20260904083748 20 140 0.0 0.0 0.00 0.00 0.00 99 1016.8
20260904083244 20 140 0.0 0.0 0.00 0.00 0.00 99 1016.4
20260904082739 20 140 0.0 0.0 0.00 0.00 0.00 99 1016.5
20260904082234 20 140 0.0 0.0 0.00 0.00 0.00 99 1016.5
20260904081729 20 140 0.0 0.0 0.00 0.00 0.00 99 1016.5
20260904081225 20 140 0.0 0.0 0.00 0.00 0.00 99 1016.3
20260904080721 20 140 0.0 0.0 0.00 0.00 0.00 99 1016.5
20260904080216 20 140 0.0 0.0 0.00 0.00 0.00 99 1016.5
20260904075712 20 140 0.0 0.0 0.00 0.00 0.00 99 1016.5
20260904075206 20 140 0.0 0.0 0.00 0.00 0.00 99 1016.4
20260904074700 21 140 0.0 0.0 0.00 0.00 0.00 99 1016.5
20260904074154 21 140 0.0 0.0 0.00 0.00 0.00 99 1016.3
20260904073650 21 140 0.0 0.0 0.00 0.00 0.00 99 1016.4
20260904073146 21 140 0.0 0.0 0.00 0.00 0.00 99 1016.4
20260904072641 21 140 0.0 0.0 0.00 0.00 0.00 99 1016.4
20260904072136 21 140 0.0 0.0 0.00 0.00 0.00 99 1016.3
20260904071626 21 140 0.0 0.0 0.00 0.00 0.00 99 1016.3
20260904071120 21 140 0.0 0.0 0.00 0.00 0.00 99 1016.5
20260904070614 21 140 0.0 0.0 0.00 0.00 0.00 99 1016.4
20260904070109 21 140 0.0 0.0 0.00 0.00 0.00 99 1016.4
20260904065604 21 140 0.0 0.0 0.00 0.00 0.00 99 1016.4
20260904065101 21 140 0.0 0.0 0.00 0.00 0.00 99 1016.3
20260904064556 21 140 0.0 0.0 0.00 0.00 0.00 99 1016.5
20260904064056 21 140 0.0 0.0 0.00 0.00 0.00 99 1016.5
20260904063552 21 140 0.0 0.0 0.00 0.00 0.00 99 1016.4
20260904063047 21 139 0.0 0.0 0.00 0.00 0.00 99 1016.5
20260904062544 21 139 0.0 0.0 0.00 0.00 0.00 99 1016.7
20260904062044 21 140 0.0 0.0 0.00 0.00 0.00 99 1016.5
20260904061540 21 140 0.0 0.0 0.00 0.00 0.00 99 1016.7
20260904061036 21 140 0.0 0.0 0.00 0.00 0.00 99 1016.8
20260904060532 21 88 0.0 0.0 0.00 0.00 0.00 98 1016.8
20260904060028 21 88 0.0 0.0 0.00 0.00 0.00 98 1016.8
20260904055523 21 88 0.0 0.0 0.00 0.00 0.00 98 1016.9
20260904055018 21 88 0.0 0.0 0.00 0.00 0.00 98 1016.9
20260904054514 21 88 0.0 0.0 0.00 0.00 0.00 98 1017.1
20260904054010 21 87 0.0 0.0 0.00 0.00 0.00 98 1017.0
20260904053509 22 87 0.0 0.0 0.00 0.00 0.00 97 1017.2
20260904053004 22 87 0.0 0.0 0.00 0.00 0.00 97 1017.1
20260904052501 22 87 0.0 0.0 0.00 0.00 0.00 97 1017.2
20260904051956 22 88 0.0 0.0 0.00 0.00 0.00 97 1017.2
20260904051453 22 87 0.0 0.0 0.00 0.00 0.00 97 1017.2
20260904050952 22 88 0.0 0.0 0.00 0.00 0.00 97 1017.5
20260904050448 22 87 0.0 0.0 0.00 0.00 0.00 97 1017.2
20260904045943 22 87 0.0 0.0 0.00 0.00 0.00 96 1017.4
20260904045438 22 87 0.0 0.0 0.00 0.00 0.00 95 1017.5
20260904044933 22 82 0.0 0.0 0.00 0.00 0.00 95 1017.3
20260904044429 22 29 0.0 0.0 0.00 0.00 0.00 95 1017.6
20260904043925 23 27 0.0 0.0 0.00 0.00 0.00 94 1017.7
20260904043422 23 27 0.0 0.0 0.00 0.00 0.00 94 1017.9
20260904042917 23 27 0.0 0.0 0.00 0.00 0.00 92 1017.9
20260904042412 23 27 0.0 0.0 0.00 0.00 0.00 91 1017.7
20260904041907 23 27 0.0 0.0 0.00 0.00 0.00 90 1017.6
20260904041358 24 27 0.0 0.0 0.00 0.00 0.00 89 1017.6
20260904040854 24 27 0.0 0.0 0.00 0.00 0.00 88 1017.6
20260904040348 24 26 0.0 0.0 0.00 0.00 0.00 87 1017.6
20260904035845 24 26 0.0 0.0 0.00 0.00 0.00 87 1017.5
20260904035341 25 26 0.0 0.0 0.00 0.00 0.00 86 1017.6
20260904034839 25 26 0.0 0.0 0.00 0.00 0.00 85 1017.7
20260904034335 25 46 0.0 0.0 0.00 0.00 0.00 85 1017.4
20260904033831 25 89 0.0 0.0 0.00 0.00 0.00 85 1017.5
20260904033327 25 48 0.0 0.0 0.00 0.00 0.00 86 1017.4
20260904032823 26 348 0.0 0.0 0.00 0.00 0.00 85 1017.3
20260904032322 26 18 0.0 0.0 0.00 0.00 0.00 85 1017.4
20260904031817 26 356 0.0 0.0 0.00 0.00 0.00 89 1017.3
20260904031313 26 334 0.0 0.0 0.00 0.00 0.00 89 1017.1
20260904030808 26 21 0.0 0.0 0.00 0.00 0.00 87 1017.3
20260904030304 26 33 0.0 0.0 0.00 0.00 0.00 91 1017.3
20260904025800 25 318 0.0 0.0 0.00 0.00 0.00 98 1017.0
20260904025255 24 229 0.0 0.0 0.00 0.00 0.00 99 1017.3
20260904024749 24 229 0.0 0.0 0.00 0.00 0.00 99 1017.1
20260904024245 24 229 0.0 0.0 0.00 0.00 0.00 99 1017.0
20260904023741 24 229 0.0 0.0 0.00 0.00 0.00 99 1016.8
20260904023237 24 229 0.0 0.0 0.00 0.00 0.00 99 1016.9
20260904022736 25 229 0.0 0.0 0.00 0.00 0.00 99 1016.9
20260904022233 24 229 0.0 0.0 0.00 0.00 0.00 99 1017.0
20260904021729 24 229 0.0 0.0 0.00 0.00 0.00 99 1017.0
20260904021229 25 229 0.0 0.0 0.00 0.00 0.00 99 1016.9
20260904020725 25 229 0.0 0.0 0.00 0.00 0.00 99 1016.7
20260904020225 25 229 0.0 0.0 0.00 0.00 0.00 99 1016.7
20260904015723 25 229 0.0 0.0 0.00 0.00 0.00 99 1016.8
20260904015219 25 229 0.0 0.0 0.00 0.00 0.00 99 1017.0
20260904014717 25 229 0.0 0.0 0.00 0.00 0.00 99 1016.7
20260904014212 25 229 0.0 0.0 0.00 0.00 0.00 99 1016.7
20260904013704 25 229 0.0 0.0 0.00 0.00 0.00 99 1016.5
20260904013159 25 229 0.0 0.0 0.00 0.00 0.00 98 1016.4
20260904012655 25 229 0.0 0.0 0.00 0.00 0.00 98 1016.6
20260904012154 25 229 0.0 0.0 0.00 0.00 0.00 98 1016.6
20260904011653 25 229 0.0 0.0 0.00 0.00 0.00 98 1016.5
20260904011149 25 229 0.0 0.0 0.00 0.00 0.00 98 1016.4
20260904010644 25 229 0.0 0.0 0.00 0.00 0.00 98 1016.4
20260904010140 25 229 0.0 0.0 0.00 0.00 0.00 98 1016.3
20260904005635 25 229 0.0 0.0 0.00 0.00 0.00 97 1016.1
20260904005131 25 229 0.0 0.0 0.00 0.00 0.00 97 1016.4
20260904004626 25 229 0.0 0.0 0.00 0.00 0.00 97 1016.3
20260904004125 26 229 0.0 0.0 0.00 0.00 0.00 97 1016.5
20260904003622 26 229 0.0 0.0 0.00 0.00 0.00 97 1016.4
20260904003117 26 229 0.0 0.0 0.00 0.00 0.00 96 1016.4
20260904002613 26 229 0.0 0.0 0.00 0.00 0.00 96 1016.4
20260904002108 26 229 0.0 0.0 0.00 0.00 0.00 96 1016.2
20260904001603 26 229 0.0 0.0 0.00 0.00 0.00 96 1016.2
20260904001102 26 229 0.0 0.0 0.00 0.00 0.00 96 1016.1
20260904000556 26 229 0.0 0.0 0.00 0.00 0.00 95 1016.2
20260904000053 26 229 0.0 0.0 0.00 0.00 0.00 95 1016.3
20260903235553 26 229 0.0 0.0 0.00 0.00 0.00 94 1016.2
20260903235049 27 229 0.0 0.0 0.00 0.00 0.00 94 1016.3
20260903234544 27 229 0.0 0.0 0.00 0.00 0.00 93 1016.3
20260903234039 27 229 0.0 0.0 0.00 0.00 0.00 92 1016.4
20260903233535 27 229 0.0 0.0 0.00 0.00 0.00 92 1016.4
20260903233031 28 229 0.0 0.0 0.00 0.00 0.00 90 1016.4
20260903232526 28 229 0.0 0.0 0.00 0.00 0.00 89 1016.6
20260903232021 28 230 0.0 0.0 0.00 0.00 0.00 88 1016.6
20260903231515 29 230 0.0 0.0 0.00 0.00 0.00 86 1016.4
20260903231010 29 230 0.0 0.0 0.00 0.00 0.00 86 1016.3
20260903230506 29 230 0.0 0.0 0.00 0.00 0.00 86 1016.2
20260903230003 29 230 0.0 0.0 0.00 0.00 0.00 85 1016.2
20260903225457 29 230 0.0 0.0 0.00 0.00 0.00 84 1016.3
20260903224954 30 230 0.0 0.0 0.00 0.00 0.00 83 1015.9
20260903224449 30 230 0.0 0.0 0.00 0.00 0.00 79 1015.8
20260903223945 31 230 0.0 0.0 0.00 0.00 0.00 79 1015.9
20260903223444 31 231 0.0 0.0 0.00 0.00 0.00 77 1015.7
20260903222943 31 230 0.0 0.0 0.00 0.00 0.00 77 1015.8
20260903222438 31 231 0.0 0.0 0.00 0.00 0.00 75 1015.7
20260903221937 32 248 0.0 0.0 0.00 0.00 0.00 74 1015.7
20260903221432 32 249 0.0 0.0 0.00 0.00 0.00 71 1015.5
20260903220929 32 249 0.0 0.0 0.00 0.00 0.00 70 1015.6
20260903220424 32 249 0.0 0.0 0.00 0.00 0.00 73 1015.5
20260903215921 32 250 0.0 0.0 0.00 0.00 0.00 66 1015.1
20260903215419 33 244 0.0 0.0 0.00 0.00 0.00 65 1015.1
20260903214916 33 243 0.0 0.0 0.00 0.00 0.00 65 1015.2
20260903214413 33 250 0.0 0.0 0.00 0.00 0.00 65 1015.2
20260903213912 33 262 0.0 0.0 0.00 0.00 0.00 66 1015.1
20260903213408 33 261 0.0 0.0 0.00 0.00 0.00 64 1015.2
20260903212904 33 302 0.0 0.0 0.00 0.00 0.00 64 1015.1